PDT,Max TemperatureF,Mean TemperatureF,Min TemperatureF,Max Dew PointF,MeanDew PointF,Min DewpointF,Max Humidity, Mean Humidity, Min Humidity, Max Sea Level PressureIn, Mean Sea Level PressureIn, Min Sea Level PressureIn, Max VisibilityMiles, Mean VisibilityMiles, Min VisibilityMiles, Max Wind SpeedMPH, Mean Wind SpeedMPH, Max Gust SpeedMPH,PrecipitationIn, CloudCover, Events, WindDirDegrees
2012-5-1,55,48,42,35,32,30,66,53,40,29.99,29.92,29.85,10,10,10,21,13,29,0.00,6,Rain,206
2012-5-2,59,50,42,38,33,27,73,56,33,29.99,29.92,29.77,10,10,10,20,12,24,0.00,4,Rain,211
2012-5-3,64,54,45,50,43,34,86,72,56,29.96,29.74,29.66,10,8,2,20,5,29,0.43,6,Rain-Thunderstorm,177
2012-5-4,57,50,44,38,36,33,74,59,40,30.28,30.10,29.98,10,10,10,16,11,23,0.00,4,,204
2012-5-5,57,48,39,35,31,27,74,53,32,30.43,30.40,30.31,10,10,10,16,11,22,0.04,6,Rain,196
2012-5-6,64,52,39,44,37,32,79,59,39,30.48,30.42,30.36,10,10,10,10,5,,0.00,0,,97
2012-5-7,72,57,42,48,40,35,77,57,33,30.36,30.27,30.13,10,10,10,8,2,,0.00,0,,60
2012-5-8,79,63,48,50,42,37,71,47,23,30.12,30.02,29.91,10,10,10,18,4,,0.00,0,,181
2012-5-9,64,55,46,43,33,23,66,42,22,30.22,30.08,29.96,10,10,10,20,14,26,0.00,2,,238
2012-5-10,59,47,37,32,26,20,68,47,23,30.38,30.30,30.24,10,10,10,10,6,,0.00,0,,177
2012-5-11,66,50,34,37,30,25,75,48,22,30.32,30.26,30.19,10,10,10,12,6,,0.00,0,,64
2012-5-12,75,55,37,47,35,27,76,47,18,30.30,30.23,30.17,10,10,10,9,4,,0.00,0,,73
2012-5-13,82,64,46,51,42,33,71,46,22,30.22,30.13,30.02,10,10,10,12,4,,0.00,0,,72
2012-5-14,87,70,55,59,47,40,67,46,25,30.06,29.99,29.90,10,10,6,8,4,,0.00,0,,103
2012-5-15,89,72,57,53,49,45,69,45,23,29.96,29.90,29.82,10,10,10,15,6,,0.00,0,Rain,151
2012-5-16,79,69,59,47,41,31,60,39,20,29.97,29.92,29.85,10,10,10,17,9,,0.00,0,,200
2012-5-17,70,60,52,39,34,23,55,39,19,29.93,29.89,29.81,10,10,10,14,9,22,0.00,1,,199
2012-5-18,66,56,46,35,29,20,58,38,17,30.09,30.03,29.95,10,10,10,14,9,,0.00,1,,194
2012-5-19,73,61,50,39,31,28,46,33,20,30.08,30.04,30.01,10,10,10,13,7,18,0.00,2,,195
2012-5-20,73,66,59,51,40,33,72,42,27,30.04,30.00,29.93,10,10,10,9,4,,0.00,7,Rain,126
2012-5-21,66,60,55,56,53,49,94,80,68,29.93,29.88,29.83,10,9,2,13,6,,0.21,6,Rain-Thunderstorm,193
2012-5-22,60,54,48,51,45,40,86,69,55,29.96,29.93,29.87,10,10,4,18,10,24,0.09,7,Rain-Thunderstorm,210
2012-5-23,64,55,46,42,38,34,77,58,34,30.02,29.95,29.89,10,10,9,20,14,25,0.06,8,Rain,204
2012-5-24,64,55,46,43,39,31,80,58,30,29.94,29.80,29.70,10,10,10,15,10,20,0.00,5,Rain,158
2012-5-25,72,60,45,44,39,32,83,53,26,29.79,29.72,29.68,10,10,10,21,8,30,0.00,2,,81
2012-5-26,66,56,46,42,38,35,68,52,32,29.83,29.80,29.78,10,10,10,9,6,,0.00,6,,172
2012-5-27,75,64,54,45,41,34,72,48,26,30.00,29.92,29.84,10,10,10,21,12,25,0.00,2,,210
2012-5-28,73,62,52,48,43,38,66,49,33,30.04,30.00,29.94,10,10,10,14,9,18,0.00,2,Rain,222
2012-5-29,70,61,53,42,37,32,66,44,25,30.10,30.06,30.03,10,10,10,15,10,23,0.01,4,Rain,208
2012-5-30,73,64,54,49,38,32,60,40,24,30.19,30.15,30.08,10,10,10,15,9,22,0.00,2,,186
2012-5-31,73,67,61,54,50,43,65,53,48,30.13,30.07,29.99,10,10,10,16,8,22,0.00,5,Rain,188